Retour au catalogue

SL-12 R/B

AUX MOTOR

ActifHEO
NORAD 16446·ROCKET BODY·🇷🇺 Russia

Lancé Dec 24, 1985 depuis Baikonur Cosmodrome

Loading…

Prochains Passages (prochaines 24 heures)

TLE

FraisSource: Space-Track

Époque: Sep 13, 2026, 13:22 UTC

1 16446U 85118L   26256.55726855  .00001215  00000-0  60724-3 0  9999
2 16446  64.7879 287.9674 5706324   6.1162 358.7023  4.42076272641788

Suivez SL-12 R/B en temps réel avec AllMySat

Download on the App Store